Погода в Фроловском

Россия / Калужская область     54°03′38″N   35°42′10″E
темп.,
°C
ветер,
м/с
пор.,
м/с
влажн.,
%
обл.,
%
осадки,
мм/ч
давл.,
гПа
погр.,
м
14 июня, пн
пн1400:00+14ююв229529 1.4 100914
03:00+14ю119529 1.4 101111
06:00+15ююв12945 0.0 101278
09:00+20ю227812 0.0 1013460
12:00+24зюз22598 0.0 10141342
15:00+24с226349 0.5 1014880
18:00+22юв117986 2.4 1014119
21:00+18ююв118438 2.9 101511
15 июня, вт
вт1500:00+16юз118817 0.0 101511
03:00+15ссв00905 0.0 101411
06:00+17ссз00905 0.0 101431
09:00+21з11754 0.0 1014398
12:00+24сз22635 0.8 10131102
15:00+24сз226610 1.4 10121151
18:00+24юз1174100 1.1 1010260
21:00+18зсз118897 2.8 101111
16 июня, ср
ср1600:00+16ссз249423 0.0 101162
03:00+15ссз34956 0.0 101183
06:00+16ссз26955 0.0 1012172
09:00+20с4573100 0.0 1013473
12:00+22с456246 0.0 1014963
15:00+24с35574 0.0 10141508
18:00+21ссв37785 0.7 1015726
21:00+16ссв398368 0.7 1018181
17 июня, чт
чт1700:00+13св3677100 0.0 1019103
03:00+12св23795 0.0 102146
06:00+13св24815 0.0 1023110
09:00+19всв34575 0.0 1024483
12:00+21св33480 0.0 10241339
15:00+23ссв23470 0.0 10251571
18:00+22ссв22600 0.0 10251181
21:00+16ююв228447 0.0 102617
18 июня, пт
пт1800:00+13ююз118268 0.0 102710
03:00+13сз118368 0.0 102810
06:00+15ссз11803 0.0 102827
09:00+20ююв11631 0.0 1029457
12:00+24ю12490 0.0 10281431
15:00+25ююв12467 0.0 10281795
18:00+24юв22610 0.0 1027517
21:00+18ю22835 0.0 102822